When you browse on this site, cookies collect data to enhance your experience and personalize the content and advertising you see.
Visit our Privacy Policy to learn more. By continuing to use the site, you agree to this use of cookies and data.
  • In Österreich
  • Länderverzeichnis
  • Für 7 Tage
  • Wassertemperatur
  • Satellitenkarten
  • Wetterkarte
  • News
  • Widgets
  • user-avatar
    Anmelden

    Stündliche Wetter Goldene Küste

    Heute, 22 Mai, Mittwoch

    Zeit Temperatur Niederschläge Wind Luftdruck Luftfeuchtigkeit
    00:00 +18°C° 0 mm 1 m/S 766 mmHg 84%
    01:00 +18°C° 0 mm 1 m/S 766 mmHg 85%
    02:00 +17°C° 0 mm 2 m/S 766 mmHg 86%
    03:00 +17°C° 0 mm 2 m/S 766 mmHg 86%
    04:00 +17°C° 0 mm 2 m/S 765 mmHg 86%
    05:00 +17°C° 0 mm 2 m/S 766 mmHg 86%
    06:00 +17°C° 0 mm 2 m/S 766 mmHg 86%
    07:00 +17°C° 0 mm 2 m/S 766 mmHg 85%
    08:00 +19°C° 0 mm 2 m/S 766 mmHg 77%
    09:00 +21°C° 0 mm 2 m/S 766 mmHg 68%
    10:00 +25°C° 0 mm 2 m/S 766 mmHg 57%
    11:00 +25°C° 0 mm 3 m/S 766 mmHg 55%
    12:00 +26°C° 0 mm 3 m/S 765 mmHg 53%
    13:00 +26°C° 0 mm 3 m/S 765 mmHg 51%
    14:00 +25°C° 0 mm 3 m/S 765 mmHg 55%
    15:00 +23°C° 0 mm 4 m/S 765 mmHg 60%
    16:00 +22°C° 0 mm 3 m/S 765 mmHg 68%
    17:00 +21°C° 0 mm 3 m/S 765 mmHg 72%
    18:00 +20°C° 0 mm 3 m/S 765 mmHg 75%
    19:00 +19°C° 0 mm 3 m/S 765 mmHg 79%
    20:00 +19°C° 0 mm 3 m/S 765 mmHg 80%
    21:00 +18°C° 0 mm 3 m/S 766 mmHg 80%
    22:00 +18°C° 0 mm 3 m/S 766 mmHg 80%
    23:00 +18°C° 0 mm 3 m/S 766 mmHg 81%

    Morgen, 23 Mai, Donnerstag

    Zeit Temperatur Niederschläge Wind Luftdruck Luftfeuchtigkeit
    00:00 +17°C° 0 mm 3 m/S 766 mmHg 82%
    01:00 +17°C° 0 mm 2 m/S 765 mmHg 83%
    02:00 +17°C° 0 mm 3 m/S 765 mmHg 84%
    03:00 +17°C° 0 mm 3 m/S 765 mmHg 85%
    04:00 +17°C° 0 mm 3 m/S 765 mmHg 86%
    05:00 +16°C° 0 mm 3 m/S 765 mmHg 87%
    06:00 +16°C° 0 mm 3 m/S 765 mmHg 88%
    07:00 +16°C° 0 mm 3 m/S 765 mmHg 88%
    08:00 +19°C° 0 mm 3 m/S 765 mmHg 79%
    09:00 +21°C° 0 mm 4 m/S 766 mmHg 70%
    10:00 +23°C° 0 mm 4 m/S 766 mmHg 61%
    11:00 +22°C° 0.2 mm 4 m/S 765 mmHg 64%
    12:00 +22°C° 0.2 mm 4 m/S 765 mmHg 66%
    13:00 +22°C° 0.2 mm 4 m/S 764 mmHg 69%
    14:00 +22°C° 0.1 mm 4 m/S 764 mmHg 70%
    15:00 +21°C° 0.1 mm 4 m/S 764 mmHg 71%
    16:00 +21°C° 0.1 mm 4 m/S 763 mmHg 72%
    17:00 +20°C° 0 mm 3 m/S 764 mmHg 74%
    18:00 +19°C° 0 mm 3 m/S 764 mmHg 76%
    19:00 +18°C° 0 mm 3 m/S 764 mmHg 79%
    20:00 +18°C° 0 mm 3 m/S 765 mmHg 79%
    21:00 +18°C° 0 mm 3 m/S 765 mmHg 80%
    22:00 +18°C° 0 mm 3 m/S 765 mmHg 80%
    23:00 +17°C° 0 mm 3 m/S 765 mmHg 81%

    übermorgen, 24 Mai, Freitag

    Zeit Temperatur Niederschläge Wind Luftdruck Luftfeuchtigkeit
    00:00 +17°C° 0 mm 3 m/S 764 mmHg 82%
    01:00 +17°C° 0 mm 3 m/S 764 mmHg 83%
    02:00 +16°C° 0 mm 3 m/S 764 mmHg 84%
    03:00 +16°C° 0 mm 3 m/S 764 mmHg 85%
    04:00 +16°C° 0 mm 3 m/S 763 mmHg 87%
    05:00 +16°C° 0 mm 3 m/S 764 mmHg 88%
    06:00 +16°C° 0 mm 3 m/S 764 mmHg 89%
    07:00 +16°C° 0 mm 3 m/S 764 mmHg 90%
    08:00 +18°C° 0 mm 3 m/S 764 mmHg 80%
    09:00 +20°C° 0 mm 3 m/S 764 mmHg 70%
    10:00 +22°C° 0 mm 3 m/S 764 mmHg 60%
    11:00 +24°C° 0 mm 3 m/S 763 mmHg 56%
    12:00 +25°C° 0 mm 3 m/S 763 mmHg 52%
    13:00 +26°C° 0 mm 2 m/S 762 mmHg 49%
    14:00 +25°C° 0 mm 3 m/S 762 mmHg 53%
    15:00 +24°C° 0 mm 3 m/S 761 mmHg 57%
    16:00 +24°C° 0 mm 3 m/S 761 mmHg 61%
    17:00 +21°C° 0 mm 3 m/S 761 mmHg 68%
    18:00 +19°C° 0 mm 2 m/S 762 mmHg 75%
    19:00 +18°C° 0 mm 2 m/S 762 mmHg 82%
    20:00 +18°C° 0 mm 2 m/S 762 mmHg 83%
    21:00 +17°C° 0 mm 2 m/S 763 mmHg 85%
    22:00 +18°C° 0 mm 1 m/S 763 mmHg 87%
    23:00 +16°C° 0 mm 2 m/S 762 mmHg 88%

    25 Mai, Samstag

    Zeit Temperatur Niederschläge Wind Luftdruck Luftfeuchtigkeit
    00:00 +16°C° 0 mm 2 m/S 762 mmHg 90%
    01:00 +16°C° 0 mm 2 m/S 762 mmHg 91%
    02:00 +16°C° 0 mm 2 m/S 762 mmHg 90%
    03:00 +15°C° 0 mm 2 m/S 761 mmHg 89%
    04:00 +15°C° 0 mm 2 m/S 761 mmHg 89%
    05:00 +15°C° 0 mm 2 m/S 762 mmHg 87%
    06:00 +15°C° 0 mm 2 m/S 762 mmHg 85%
    07:00 +15°C° 0 mm 2 m/S 762 mmHg 83%
    08:00 +19°C° 0 mm 1 m/S 762 mmHg 72%
    09:00 +22°C° 0 mm 1 m/S 762 mmHg 62%
    10:00 +23°C° 0 mm 0 m/S 762 mmHg 51%
    11:00 +25°C° 0 mm 1 m/S 761 mmHg 49%
    12:00 +25°C° 0 mm 1 m/S 760 mmHg 47%
    13:00 +26°C° 0 mm 1 m/S 760 mmHg 45%
    14:00 +25°C° 0 mm 1 m/S 760 mmHg 50%
    15:00 +24°C° 0 mm 2 m/S 759 mmHg 56%
    16:00 +23°C° 0 mm 2 m/S 759 mmHg 61%
    17:00 +21°C° 0 mm 2 m/S 759 mmHg 68%
    18:00 +20°C° 0 mm 1 m/S 760 mmHg 75%
    19:00 +19°C° 0 mm 1 m/S 760 mmHg 82%
    20:00 +19°C° 0 mm 1 m/S 760 mmHg 84%
    21:00 +18°C° 0 mm 1 m/S 760 mmHg 85%
    22:00 +16°C° 0 mm 0 m/S 761 mmHg 87%
    23:00 +18°C° 0 mm 1 m/S 760 mmHg 88%

    26 Mai, Sonntag

    Zeit Temperatur Niederschläge Wind Luftdruck Luftfeuchtigkeit
    00:00 +16°C° 0 mm 1 m/S 760 mmHg 90%
    01:00 +16°C° 0 mm 2 m/S 760 mmHg 91%
    02:00 +16°C° 0 mm 2 m/S 760 mmHg 91%
    03:00 +15°C° 0 mm 2 m/S 759 mmHg 92%
    04:00 +15°C° 0 mm 2 m/S 759 mmHg 92%
    05:00 +15°C° 0 mm 2 m/S 759 mmHg 89%
    06:00 +15°C° 0 mm 2 m/S 759 mmHg 86%
    07:00 +15°C° 0 mm 2 m/S 760 mmHg 83%
    08:00 +18°C° 0 mm 2 m/S 760 mmHg 71%
    09:00 +20°C° 0 mm 3 m/S 759 mmHg 59%
    10:00 +24°C° 0 mm 3 m/S 759 mmHg 48%
    11:00 +25°C° 0 mm 3 m/S 759 mmHg 42%
    12:00 +26°C° 0 mm 3 m/S 758 mmHg 37%
    13:00 +27°C° 0 mm 3 m/S 757 mmHg 31%
    14:00 +27°C° 0 mm 3 m/S 757 mmHg 35%
    15:00 +26°C° 0 mm 3 m/S 757 mmHg 39%
    16:00 +25°C° 0 mm 3 m/S 757 mmHg 43%
    17:00 +24°C° 0 mm 3 m/S 757 mmHg 47%
    18:00 +21°C° 0 mm 3 m/S 757 mmHg 50%
    19:00 +19°C° 0 mm 3 m/S 758 mmHg 54%
    20:00 +19°C° 0 mm 3 m/S 758 mmHg 53%
    21:00 +18°C° 0 mm 2 m/S 758 mmHg 52%
    22:00 +17°C° 0 mm 2 m/S 758 mmHg 52%
    23:00 +17°C° 0 mm 2 m/S 758 mmHg 52%

    27 Mai, Montag

    Zeit Temperatur Niederschläge Wind Luftdruck Luftfeuchtigkeit
    00:00 +17°C° 0 mm 2 m/S 758 mmHg 53%
    01:00 +17°C° 0 mm 2 m/S 758 mmHg 54%
    02:00 +16°C° 0 mm 2 m/S 758 mmHg 54%
    03:00 +16°C° 0 mm 2 m/S 758 mmHg 55%
    04:00 +16°C° 0 mm 3 m/S 758 mmHg 55%
    05:00 +16°C° 0 mm 3 m/S 758 mmHg 56%
    06:00 +16°C° 0 mm 3 m/S 759 mmHg 58%
    07:00 +14°C° 0 mm 3 m/S 759 mmHg 59%
    08:00 +18°C° 0 mm 2 m/S 760 mmHg 54%
    09:00 +21°C° 0 mm 2 m/S 760 mmHg 49%
    10:00 +25°C° 0 mm 2 m/S 760 mmHg 43%
    11:00 +25°C° 0 mm 2 m/S 759 mmHg 40%
    12:00 +26°C° 0 mm 2 m/S 758 mmHg 37%
    13:00 +27°C° 0 mm 2 m/S 758 mmHg 35%
    14:00 +26°C° 0 mm 2 m/S 758 mmHg 41%
    15:00 +25°C° 0 mm 3 m/S 757 mmHg 47%
    16:00 +24°C° 0 mm 3 m/S 757 mmHg 54%
    17:00 +21°C° 0 mm 2 m/S 758 mmHg 65%
    18:00 +19°C° 0 mm 2 m/S 758 mmHg 76%
    19:00 +18°C° 0 mm 1 m/S 758 mmHg 87%
    20:00 +18°C° 0 mm 1 m/S 759 mmHg 88%
    21:00 +18°C° 0 mm 1 m/S 759 mmHg 89%
    22:00 +16°C° 0 mm 1 m/S 759 mmHg 90%
    23:00 +16°C° 0 mm 2 m/S 759 mmHg 88%
    Mehr zeigen